Location: *
(49.9853°N, 3.5569°E)
Time: 08:00:27
(UTC+00:00)

Cosmos 2333 Rocket - Pass Details

Date: 22 September 2019
Orbit: 840 x 862 km, 70.8° (Epoch: 15 October)

Event Time Altitude Azimuth Distance (km) Brightness Sun altitude
Rises 18:41:38 0° 325° (NW) 3,425 6.2 -9.9°
Reaches altitude 10° 18:44:15 10° 317° (NW) 2,489 5.6 -10.3°
Maximum altitude 18:49:24 36° 253° (WSW) 1,326 3.8 -11.1°
Drops below altitude 10° 18:54:33 10° 188° (S) 2,486 4.6 -11.9°
Sets 18:57:11 0° 180° (S) 3,420 5.2 -12.3°
